Location: Newark
(13.8117°N, 3.6025°W)
Time: 00:34:27
(UTC+00:00)

Explorer 11/Cluster Stage 4 - Pass Details

Date: 31 August 2019
Orbit: 467 x 1259 km, 28.8° (Epoch: 17 October)

Event Time Altitude Azimuth Distance (km) Brightness Sun altitude
Rises 11:42:58 0° 303° (WNW) 3,992 10.1 80.6°
Reaches altitude 10° 11:45:52 10° 309° (NW) 3,108 9.7 81.2°
Maximum altitude 11:53:26 45° 20° (NNE) 1,642 9.0 82.6°
Drops below altitude 10° 12:01:12 10° 91° (E) 3,199 9.9 83.8°
Sets 12:04:12 0° 97° (E) 4,119 10.3 84.2°
